M I D A S
Marine Information and Data Acquisition System
Tripno 382 of the Zeeleeuw from 2002-08-01 07:53:26 to 2002-08-01 14:23:53
Back to CruiseResearch ActivitiesStationsMapUnderway DataData graphs

EquipmentUnitsComments
TimeDGPSUTC
LatitudeDGPSDM.mWGS84
LongitudeDGPSDM.mWGS84
SpeedMeteo Stationm/sRelative wind speed
DirectionMeteo StationdegRelative wind direction
TemperatureMeteo Stationdeg CelciusAir temperature
PressureMeteo StationPaAtmospheric pressure
HumidityMeteo Station%Relative humidity
Missing or incorrect values are displayed as -999
Metereological data collected by the RV Zeeleeuw from 2002-08-01 07:53:26 to 2002-08-01 14:23:53
Time Latitude Longitude Speed Direction Temperature Pressure Humidity
2002-08-01 07:54 51°13.668 2°55.929 4.5 31 17.4 101190 73
2002-08-01 07:55 51°13.675 2°55.863 4.2 28 17.3 101190 73
2002-08-01 07:56 51°13.68 2°55.787 3.3 27 17.4 101190 74
2002-08-01 07:57 51°13.679 2°55.739 2.4 17 17.4 101190 74
2002-08-01 07:58 51°13.689 2°55.738 2.7 312 17.5 101190 74
2002-08-01 07:59 51°13.737 2°55.712 4.4 251 17.4 101190 73
2002-08-01 08:00 51°13.83 2°55.633 6.2 246 17.4 101180 73
2002-08-01 08:01 51°13.947 2°55.546 6.8 261 17.5 101180 73
2002-08-01 08:02 51°14.07 2°55.454 8.2 246 17.4 101180 74
2002-08-01 08:03 51°14.192 2°55.352 7.7 246 17.4 101180 75
2002-08-01 08:04 51°14.293 2°55.201 9.1 245 17.4 101180 76
2002-08-01 08:05 51°14.395 2°55.002 10.6 244 17.3 101170 75
2002-08-01 08:06 51°14.526 2°54.825 8.7 246 17.3 101180 76
2002-08-01 08:07 51°14.665 2°54.669 9.6 249 17.3 101170 76
2002-08-01 08:08 51°14.79 2°54.551 7.4 258 17.3 101170 77
2002-08-01 08:09 51°14.941 2°54.501 8.4 260 17.2 101170 75
2002-08-01 08:10 51°15.143 2°54.585 9.3 263 17.2 101180 76
2002-08-01 08:11 51°15.322 2°54.81 7.9 269 17.2 101170 76
2002-08-01 08:12 51°15.494 2°55.061 7.8 273 17.2 101170 76
2002-08-01 08:13 51°15.651 2°55.344 7.7 266 17.3 101170 77
2002-08-01 08:14 51°15.8 2°55.63 7.4 263 17.3 101180 77
2002-08-01 08:15 51°15.947 2°55.92 6.9 252 17.3 101180 77
2002-08-01 08:16 51°16.085 2°56.222 6.1 251 17.2 101180 77
2002-08-01 08:17 51°16.213 2°56.531 6.9 259 17.2 101190 77
2002-08-01 08:18 51°16.334 2°56.845 6.3 262 17.3 101190 78
2002-08-01 08:19 51°16.456 2°57.157 5.6 256 17.3 101190 77
2002-08-01 08:20 51°16.579 2°57.468 5.1 258 17.3 101190 78
2002-08-01 08:21 51°16.706 2°57.779 6.3 256 17.3 101190 78
2002-08-01 08:22 51°16.83 2°58.093 6.7 265 17.3 101190 78
2002-08-01 08:23 51°16.954 2°58.405 6.9 263 17.2 101190 78
2002-08-01 08:24 51°17.08 2°58.718 7.1 259 17.3 101190 78
2002-08-01 08:25 51°17.203 2°59.032 5.5 257 17.2 101180 78
2002-08-01 08:26 51°17.33 2°59.343 6.9 269 17.2 101180 78
2002-08-01 08:27 51°17.454 2°59.656 6.4 272 17.2 101180 78
2002-08-01 08:28 51°17.578 2°59.968 5.6 274 17.2 101180 78
2002-08-01 08:29 51°17.7 3°0.282 7 262 17.2 101190 78
2002-08-01 08:30 51°17.824 3°0.593 7.3 257 17.2 101190 78
2002-08-01 08:31 51°17.949 3°0.898 7.1 255 17.2 101200 77
2002-08-01 08:32 51°18.073 3°1.203 6.4 257 17.2 101200 76
2002-08-01 08:33 51°18.196 3°1.507 6.5 255 17.2 101200 75
2002-08-01 08:34 51°18.32 3°1.806 6 261 17.2 101190 74
2002-08-01 08:35 51°18.439 3°2.112 6.8 255 17.2 101200 74
2002-08-01 08:36 51°18.557 3°2.417 6.6 260 17.3 101200 75
2002-08-01 08:37 51°18.677 3°2.718 6.6 262 17.3 101190 75
2002-08-01 08:38 51°18.804 3°3.008 7.2 266 17.3 101190 75
2002-08-01 08:39 51°18.939 3°3.291 7.1 258 17.2 101190 75
2002-08-01 08:40 51°19.071 3°3.576 6.7 267 17.3 101190 74
2002-08-01 08:41 51°19.197 3°3.864 5.6 266 17.3 101200 74
2002-08-01 08:42 51°19.322 3°4.157 6.6 260 17.3 101200 75
2002-08-01 08:43 51°19.463 3°4.425 5.8 265 17.4 101210 75
2002-08-01 08:44 51°19.597 3°4.702 5.5 255 17.4 101210 76
2002-08-01 08:45 51°19.738 3°4.971 6.2 257 17.4 101210 76
2002-08-01 08:46 51°19.88 3°5.237 5.3 253 17.4 101210 77
2002-08-01 08:47 51°20.012 3°5.514 6.4 257 17.4 101220 77
2002-08-01 08:48 51°20.155 3°5.774 5.4 251 17.4 101220 78
2002-08-01 08:49 51°20.287 3°6.047 5.2 262 17.4 101220 78
2002-08-01 08:50 51°20.423 3°6.314 5.6 256 17.3 101220 77
2002-08-01 08:51 51°20.57 3°6.559 6.7 260 17.3 101220 78
2002-08-01 08:52 51°20.721 3°6.801 5.9 257 17.4 101220 78
2002-08-01 08:53 51°20.896 3°6.996 8.4 266 17.3 101220 78
2002-08-01 08:54 51°21.074 3°7.197 6.1 260 17.3 101210 78
2002-08-01 08:55 51°21.241 3°7.426 6.8 259 17.3 101220 78
2002-08-01 08:56 51°21.414 3°7.658 7.3 261 17.3 101210 78
2002-08-01 08:57 51°21.588 3°7.891 6.7 262 17.3 101200 77
2002-08-01 08:58 51°21.76 3°8.128 8.1 264 17.3 101200 77
2002-08-01 08:59 51°21.932 3°8.366 8.3 260 17.2 101200 76
2002-08-01 09:00 51°22.103 3°8.605 9 260 17.2 101200 76
2002-08-01 09:01 51°22.276 3°8.842 8.4 262 17.2 101200 76
2002-08-01 09:02 51°22.451 3°9.079 6.8 258 17.2 101210 76
2002-08-01 09:03 51°22.558 3°9.26 4.2 283 17.2 101210 76
2002-08-01 09:04 51°22.626 3°9.386 2.3 327 17.2 101220 75
2002-08-01 09:05 51°22.675 3°9.467 1.5 305 17.2 101220 75
2002-08-01 09:06 51°22.694 3°9.478 1.3 327 17.2 101220 74
2002-08-01 09:07 51°22.697 3°9.469 1.3 316 17.2 101220 74
2002-08-01 09:08 51°22.7 3°9.459 1.3 307 17.3 101220 74
2002-08-01 09:09 51°22.705 3°9.452 0.9 352 17.3 101220 74
2002-08-01 09:10 51°22.719 3°9.45 1.7 303 17.2 101220 74
2002-08-01 09:11 51°22.735 3°9.452 0.9 325 17.3 101220 75
2002-08-01 09:12 51°22.747 3°9.459 2.5 11 17.2 101230 74
2002-08-01 09:13 51°22.755 3°9.471 2.9 18 17.3 101230 75
2002-08-01 09:14 51°22.758 3°9.485 3.5 21 17.3 101230 76
2002-08-01 09:15 51°22.755 3°9.498 2.5 35 17.2 101230 73
2002-08-01 09:16 51°22.747 3°9.508 2.4 72 17.2 101230 73
2002-08-01 09:17 51°22.734 3°9.511 2.7 103 17.3 101220 74
2002-08-01 09:18 51°22.72 3°9.506 3.4 113 17.3 101220 74
2002-08-01 09:19 51°22.705 3°9.494 2.7 131 17.4 101230 75
2002-08-01 09:20 51°22.698 3°9.477 3.4 118 17.3 101230 75
2002-08-01 09:21 51°22.699 3°9.463 2.9 113 17.4 101230 75
2002-08-01 09:22 51°22.699 3°9.448 3.9 109 17.3 101230 74
2002-08-01 09:23 51°22.7 3°9.434 3.2 118 17.4 101230 75
2002-08-01 09:24 51°22.701 3°9.42 3.4 111 17.4 101230 74
2002-08-01 09:25 51°22.702 3°9.403 3.3 87 17.4 101230 74
2002-08-01 09:26 51°22.703 3°9.386 4.1 86 17.5 101240 77
2002-08-01 09:27 51°22.702 3°9.369 3.1 79 17.3 101230 74
2002-08-01 09:28 51°22.698 3°9.353 3 85 17.2 101230 74
2002-08-01 09:29 51°22.687 3°9.334 3.1 120 17.3 101230 74
2002-08-01 09:30 51°22.671 3°9.308 2.7 135 17.3 101220 75
2002-08-01 09:31 51°22.655 3°9.272 3.1 170 17.3 101220 74
2002-08-01 09:32 51°22.642 3°9.229 2.5 189 17.3 101220 74
2002-08-01 09:33 51°22.631 3°9.181 2.8 188 17.3 101220 75
2002-08-01 09:34 51°22.625 3°9.133 3.3 202 17.3 101220 75
2002-08-01 09:35 51°22.623 3°9.084 3.8 225 17.3 101230 76
2002-08-01 09:36 51°22.626 3°9.036 3 238 17.3 101230 75
2002-08-01 09:37 51°22.633 3°8.992 3.8 247 17.3 101230 75
2002-08-01 09:38 51°22.643 3°8.957 2.9 283 17.4 101240 76
2002-08-01 09:39 51°22.654 3°8.934 3.2 303 17.4 101230 76
2002-08-01 09:40 51°22.665 3°8.92 2.3 341 17.4 101230 76
2002-08-01 09:41 51°22.675 3°8.915 2.9 12 17.4 101240 76
2002-08-01 09:42 51°22.68 3°8.917 2.6 34 17.3 101240 76
2002-08-01 09:43 51°22.679 3°8.932 2.2 35 17.3 101240 76
2002-08-01 09:44 51°22.673 3°8.962 1.9 66 17.4 101240 77
2002-08-01 09:45 51°22.657 3°8.997 1.9 80 17.5 101240 76
2002-08-01 09:46 51°22.633 3°9.026 1.6 112 17.4 101240 75
2002-08-01 09:47 51°22.602 3°9.033 1.8 129 17.5 101240 76
2002-08-01 09:48 51°22.572 3°9.018 1.8 130 17.5 101240 76
2002-08-01 09:49 51°22.543 3°8.989 2.9 164 17.6 101250 76
2002-08-01 09:50 51°22.511 3°8.941 4.2 205 17.4 101250 75
2002-08-01 09:51 51°22.485 3°8.833 4.9 235 17.4 101240 75
2002-08-01 09:52 51°22.518 3°8.706 5.6 254 17.5 101250 76
2002-08-01 09:53 51°22.63 3°8.53 8.8 247 17.4 101240 76
2002-08-01 09:54 51°22.816 3°8.348 9.3 251 17.4 101240 74
2002-08-01 09:55 51°23.038 3°8.22 9.9 251 17.4 101240 75
2002-08-01 09:56 51°23.269 3°8.157 10.4 254 17.4 101240 74
2002-08-01 09:57 51°23.504 3°8.109 9 256 17.4 101240 75
2002-08-01 09:58 51°23.741 3°8.064 10.8 249 17.5 101230 76
2002-08-01 09:59 51°23.976 3°8.014 9.3 253 17.5 101240 75
2002-08-01 10:00 51°24.211 3°7.961 10 254 17.4 101230 75
2002-08-01 10:01 51°24.442 3°7.907 10 261 17.5 101230 76
2002-08-01 10:02 51°24.655 3°7.856 9.9 251 17.4 101230 76
2002-08-01 10:03 51°24.862 3°7.819 8.5 257 17.4 101230 76
2002-08-01 10:04 51°25.063 3°7.81 8.5 259 17.5 101220 77
2002-08-01 10:05 51°25.262 3°7.843 8.2 257 17.4 101230 76
2002-08-01 10:06 51°25.463 3°7.875 7.4 257 17.4 101230 77
2002-08-01 10:07 51°25.664 3°7.912 8.7 252 17.5 101230 77
2002-08-01 10:08 51°25.863 3°7.954 7.6 256 17.5 101230 77
2002-08-01 10:09 51°26.051 3°8.057 7.9 261 17.4 101230 77
2002-08-01 10:10 51°26.239 3°8.161 7.8 259 17.4 101230 77
2002-08-01 10:11 51°26.429 3°8.262 8.4 255 17.4 101230 77
2002-08-01 10:12 51°26.62 3°8.363 7.9 261 17.4 101230 77
2002-08-01 10:13 51°26.812 3°8.468 6.9 252 17.5 101230 78
2002-08-01 10:14 51°26.991 3°8.562 6.1 259 17.4 101240 77
2002-08-01 10:15 51°27.132 3°8.625 5.3 270 17.4 101240 77
2002-08-01 10:16 51°27.26 3°8.682 5.4 257 17.4 101240 77
2002-08-01 10:17 51°27.385 3°8.736 6 255 17.4 101240 77
2002-08-01 10:18 51°27.51 3°8.791 5.5 253 17.4 101240 77
2002-08-01 10:19 51°27.635 3°8.845 6.2 261 17.4 101240 77
2002-08-01 10:20 51°27.76 3°8.898 6 255 17.4 101230 77
2002-08-01 10:21 51°27.885 3°8.952 6.2 265 17.4 101230 77
2002-08-01 10:22 51°27.993 3°8.996 4.4 268 17.3 101230 77
2002-08-01 10:23 51°28.092 3°9.04 5.4 265 17.4 101230 78
2002-08-01 10:24 51°28.154 3°9.106 3.1 305 17.4 101240 77
2002-08-01 10:25 51°28.181 3°9.157 0.6 342 17.3 101240 77
2002-08-01 10:26 51°28.195 3°9.192 1.1 349 17.3 101240 77
2002-08-01 10:27 51°28.201 3°9.19 2.9 5 17.3 101250 77
2002-08-01 10:28 51°28.201 3°9.158 2.9 10 17.2 101250 77
2002-08-01 10:29 51°28.203 3°9.131 2.2 11 17.3 101240 77
2002-08-01 10:30 51°28.204 3°9.109 2.2 22 17.3 101240 78
2002-08-01 10:31 51°28.206 3°9.086 2.1 11 17.4 101240 78
2002-08-01 10:32 51°28.207 3°9.061 2.5 44 17.3 101240 77
2002-08-01 10:33 51°28.211 3°9.024 2.7 132 17.3 101250 77
2002-08-01 10:34 51°28.209 3°9.018 1.6 80 17.4 101250 77
2002-08-01 10:35 51°28.188 3°9.039 1.2 96 17.4 101240 75
2002-08-01 10:36 51°28.164 3°9.066 1 96 17.4 101240 75
2002-08-01 10:37 51°28.14 3°9.095 0.8 65 17.4 101240 75
2002-08-01 10:38 51°28.126 3°9.121 0.8 47 17.5 101240 75
2002-08-01 10:39 51°28.125 3°9.148 1.2 349 17.6 101240 75
2002-08-01 10:40 51°28.139 3°9.172 1.3 301 17.5 101240 75
2002-08-01 10:41 51°28.158 3°9.185 1.9 301 17.6 101250 76
2002-08-01 10:42 51°28.176 3°9.193 2.5 311 17.7 101250 76
2002-08-01 10:43 51°28.194 3°9.197 2.3 306 17.6 101250 75
2002-08-01 10:44 51°28.21 3°9.197 0.6 320 17.6 101250 75
2002-08-01 10:45 51°28.23 3°9.189 3.1 277 17.6 101250 75
2002-08-01 10:46 51°28.262 3°9.139 3.7 226 17.6 101250 75
2002-08-01 10:47 51°28.247 3°9.039 2.4 185 17.5 101250 74
2002-08-01 10:48 51°28.194 3°9.024 1.1 137 17.5 101250 74
2002-08-01 10:49 51°28.161 3°9.035 1.8 86 17.4 101250 75
2002-08-01 10:50 51°28.14 3°9.047 1.8 64 17.5 101250 75
2002-08-01 10:51 51°28.127 3°9.062 2 39 17.5 101250 75
2002-08-01 10:52 51°28.121 3°9.08 2.1 23 17.6 101250 75
2002-08-01 10:53 51°28.122 3°9.098 2.8 2 17.6 101250 74
2002-08-01 10:54 51°28.129 3°9.112 1.2 341 17.6 101250 74
2002-08-01 10:55 51°28.14 3°9.121 1.8 348 17.4 101260 73
2002-08-01 10:56 51°28.153 3°9.129 0.4 328 17.5 101260 73
2002-08-01 10:57 51°28.166 3°9.133 0.4 328 17.5 101260 73
2002-08-01 10:58 51°28.178 3°9.136 0.6 334 17.5 101250 73
2002-08-01 10:59 51°28.189 3°9.135 0.5 318 17.5 101250 73
2002-08-01 11:00 51°28.198 3°9.132 0.2 320 17.5 101250 73
2002-08-01 11:01 51°28.205 3°9.127 0.6 320 17.6 101250 74
2002-08-01 11:02 51°28.209 3°9.121 0.3 327 17.6 101250 74
2002-08-01 11:03 51°28.209 3°9.112 1.4 343 17.6 101250 74
2002-08-01 11:04 51°28.21 3°9.105 2.1 1 17.6 101260 74
2002-08-01 11:05 51°28.221 3°9.121 2.4 16 17.6 101260 74
2002-08-01 11:06 51°28.219 3°9.161 1.4 74 17.6 101260 75
2002-08-01 11:07 51°28.193 3°9.19 3.2 120 17.7 101250 74
2002-08-01 11:08 51°28.159 3°9.193 3.5 146 17.7 101250 75
2002-08-01 11:09 51°28.128 3°9.171 3.1 172 17.6 101250 74
2002-08-01 11:10 51°28.104 3°9.134 2.9 196 17.5 101240 74
2002-08-01 11:11 51°28.089 3°9.078 3.1 228 17.5 101240 75
2002-08-01 11:12 51°28.089 3°9.021 2.5 241 17.5 101250 75
2002-08-01 11:13 51°28.1 3°8.973 3.3 267 17.5 101240 76
2002-08-01 11:14 51°28.122 3°8.943 3.4 285 17.6 101240 76
2002-08-01 11:15 51°28.159 3°8.926 4.1 265 17.7 101250 76
2002-08-01 11:16 51°28.227 3°8.779 8.3 222 17.7 101250 75
2002-08-01 11:17 51°28.265 3°8.428 8.9 224 17.7 101240 76
2002-08-01 11:18 51°28.283 3°8.043 9.5 222 17.7 101240 78
2002-08-01 11:19 51°28.305 3°7.655 10.1 224 17.5 101240 78
2002-08-01 11:20 51°28.333 3°7.266 10.2 221 17.5 101230 79
2002-08-01 11:21 51°28.363 3°6.878 9.3 222 17.5 101240 80
2002-08-01 11:22 51°28.398 3°6.488 9.1 227 17.4 101240 80
2002-08-01 11:23 51°28.429 3°6.098 9.2 222 17.4 101230 80
2002-08-01 11:24 51°28.458 3°5.706 9.4 228 17.3 101230 80
2002-08-01 11:25 51°28.487 3°5.314 8.9 226 17.3 101230 81
2002-08-01 11:26 51°28.516 3°4.92 9 227 17.3 101230 81
2002-08-01 11:27 51°28.546 3°4.525 9 227 17.2 101230 81
2002-08-01 11:28 51°28.57 3°4.192 7 227 17.2 101240 81
2002-08-01 11:29 51°28.56 3°3.992 4 210 17.2 101240 81
2002-08-01 11:30 51°28.557 3°3.859 2.7 229 17.2 101250 81
2002-08-01 11:31 51°28.579 3°3.775 2.5 243 17.2 101250 81
2002-08-01 11:32 51°28.606 3°3.722 2.9 265 17.2 101250 81
2002-08-01 11:33 51°28.632 3°3.701 2.6 288 17.3 101250 81
2002-08-01 11:34 51°28.648 3°3.706 2.1 299 17.3 101260 81
2002-08-01 11:35 51°28.655 3°3.718 0.6 323 17.4 101260 81
2002-08-01 11:36 51°28.659 3°3.727 0.7 309 17.4 101260 81
2002-08-01 11:37 51°28.664 3°3.731 0.4 341 17.5 101260 81
2002-08-01 11:38 51°28.671 3°3.731 2.1 310 17.5 101250 81
2002-08-01 11:39 51°28.681 3°3.726 2.5 302 17.6 101250 81
2002-08-01 11:40 51°28.692 3°3.716 1.2 300 17.5 101250 80
2002-08-01 11:41 51°28.701 3°3.701 1.3 277 17.6 101250 80
2002-08-01 11:42 51°28.706 3°3.682 0.9 304 17.7 101250 80
2002-08-01 11:43 51°28.706 3°3.663 0.8 337 17.8 101260 80
2002-08-01 11:44 51°28.706 3°3.644 0.5 321 17.8 101250 79
2002-08-01 11:45 51°28.701 3°3.623 0.7 348 17.7 101260 79
2002-08-01 11:46 51°28.704 3°3.61 0.4 319 17.7 101260 79
2002-08-01 11:47 51°28.712 3°3.649 0.5 322 17.7 101260 79
2002-08-01 11:48 51°28.706 3°3.676 0.3 332 17.8 101260 79
2002-08-01 11:49 51°28.699 3°3.7 0.1 324 17.9 101260 79
2002-08-01 11:50 51°28.692 3°3.719 0.2 324 17.9 101260 79
2002-08-01 11:51 51°28.684 3°3.734 0.1 341 18 101250 79
2002-08-01 11:52 51°28.677 3°3.744 1.2 347 18 101250 78
2002-08-01 11:53 51°28.669 3°3.752 1 11 18 101250 78
2002-08-01 11:54 51°28.662 3°3.759 0.8 350 17.9 101250 77
2002-08-01 11:55 51°28.654 3°3.763 0.6 351 17.8 101250 77
2002-08-01 11:56 51°28.645 3°3.766 0.3 340 17.8 101260 78
2002-08-01 11:57 51°28.639 3°3.769 0.2 332 17.8 101250 78
2002-08-01 11:58 51°28.64 3°3.771 0.3 298 17.7 101260 78
2002-08-01 11:59 51°28.647 3°3.771 1.8 294 17.8 101260 78
2002-08-01 12:00 51°28.659 3°3.767 2.2 294 17.9 101250 78
2002-08-01 12:01 51°28.674 3°3.756 1.8 274 18 101250 78
2002-08-01 12:02 51°28.69 3°3.734 2 272 18 101260 77
2002-08-01 12:03 51°28.704 3°3.704 1.9 248 18.1 101260 77
2002-08-01 12:04 51°28.718 3°3.674 1.8 253 18.1 101260 77
2002-08-01 12:05 51°28.734 3°3.653 2.4 279 18 101260 77
2002-08-01 12:06 51°28.747 3°3.647 2 284 18.1 101250 77
2002-08-01 12:07 51°28.753 3°3.656 1.5 325 18 101250 77
2002-08-01 12:08 51°28.749 3°3.672 0.4 353 17.9 101250 76
2002-08-01 12:09 51°28.734 3°3.694 0.2 350 17.8 101250 76
2002-08-01 12:10 51°28.709 3°3.711   350 17.8 101260 77
2002-08-01 12:11 51°28.675 3°3.717 0.1 16 17.8 101250 78
2002-08-01 12:12 51°28.636 3°3.711 1 137 18 101250 78
2002-08-01 12:13 51°28.568 3°3.651 3 203 18.1 101250 77
2002-08-01 12:14 51°28.491 3°3.494 4.2 224 17.9 101250 77
2002-08-01 12:15 51°28.365 3°3.249 7.5 223 17.7 101250 78
2002-08-01 12:16 51°28.208 3°2.934 7.6 225 17.5 101240 79
2002-08-01 12:17 51°28.048 3°2.617 7.3 221 17.5 101240 79
2002-08-01 12:18 51°27.891 3°2.294 8 228 17.4 101240 80
2002-08-01 12:19 51°27.732 3°1.97 8.2 225 17.4 101240 80
2002-08-01 12:20 51°27.57 3°1.649 7.6 227 17.3 101240 80
2002-08-01 12:21 51°27.405 3°1.328 7.7 225 17.3 101240 80
2002-08-01 12:22 51°27.236 3°1.008 8.3 135 17.3 101230 81
2002-08-01 12:23 51°27.063 3°0.694 7.5 222 17.3 101230 81
2002-08-01 12:24 51°26.892 3°0.379 7.3 218 17.3 101230 81
2002-08-01 12:25 51°26.72 3°0.064 7.9 224 17.3 101230 81
2002-08-01 12:26 51°26.544 2°59.754 7.9 224 17.3 101230 81
2002-08-01 12:27 51°26.368 2°59.442 8 225 17.3 101230 81
2002-08-01 12:28 51°26.197 2°59.137 7.9 227 17.3 101230 81
2002-08-01 12:29 51°26.027 2°58.834 8.4 224 17.3 101220 81
2002-08-01 12:30 51°25.857 2°58.529 9 223 17.3 101230 81
2002-08-01 12:31 51°25.687 2°58.222 8.9 224 17.4 101230 81
2002-08-01 12:32 51°25.519 2°57.915 8.6 229 17.4 101230 81
2002-08-01 12:33 51°25.353 2°57.607 8 221 17.4 101230 81
2002-08-01 12:34 51°25.187 2°57.302 9 225 17.4 101230 81
2002-08-01 12:35 51°25.023 2°56.993 8.7 213 17.4 101230 80
2002-08-01 12:36 51°24.857 2°56.683 10.1 224 17.5 101230 80
2002-08-01 12:37 51°24.69 2°56.375 9.7 221 17.5 101220 79
2002-08-01 12:38 51°24.521 2°56.066 10.1 225 17.5 101230 79
2002-08-01 12:39 51°24.352 2°55.756 11 222 17.5 101220 79
2002-08-01 12:40 51°24.182 2°55.447 10.7 222 17.6 101220 79
2002-08-01 12:41 51°24.012 2°55.136 10.6 222 17.6 101220 78
2002-08-01 12:42 51°23.838 2°54.827 10.7 221 17.5 101220 77
2002-08-01 12:43 51°23.666 2°54.514 10.7 227 17.6 101220 78
2002-08-01 12:44 51°23.494 2°54.201 11.4 223 17.6 101230 78
2002-08-01 12:45 51°23.322 2°53.888 10.6 224 17.6 101220 77
2002-08-01 12:46 51°23.151 2°53.576 9.5 220 17.7 101230 78
2002-08-01 12:47 51°22.98 2°53.265 11.1 227 17.6 101230 78
2002-08-01 12:48 51°22.814 2°52.956 11.1 224 17.6 101220 78
2002-08-01 12:49 51°22.646 2°52.647 10.7 224 17.6 101220 78
2002-08-01 12:50 51°22.477 2°52.339 10.9 221 17.6 101230 78
2002-08-01 12:51 51°22.309 2°52.028 10 220 17.6 101230 78
2002-08-01 12:52 51°22.146 2°51.714 9.6 215 17.6 101230 78
2002-08-01 12:53 51°21.979 2°51.403 10.3 221 17.6 101230 78
2002-08-01 12:54 51°21.814 2°51.088 10.8 220 17.6 101220 77
2002-08-01 12:55 51°21.648 2°50.775 10.8 222 17.6 101220 77
2002-08-01 12:56 51°21.483 2°50.467 10.5 217 17.6 101230 77
2002-08-01 12:57 51°21.318 2°50.159 10.3 222 17.6 101220 78
2002-08-01 12:58 51°21.153 2°49.849 10.5 216 17.6 101220 78
2002-08-01 12:59 51°20.987 2°49.538 11.3 217 17.7 101220 79
2002-08-01 13:00 51°20.82 2°49.229 11.2 219 17.7 101220 77
2002-08-01 13:01 51°20.655 2°48.916 10.5 219 17.5 101220 77
2002-08-01 13:02 51°20.482 2°48.612 9.8 218 17.6 101220 77
2002-08-01 13:03 51°20.298 2°48.325 9.1 216 17.7 101220 77
2002-08-01 13:04 51°20.135 2°48.061 7.5 205 17.6 101230 78
2002-08-01 13:05 51°20.034 2°47.92 4.7 178 17.4 101230 77
2002-08-01 13:06 51°19.954 2°47.835 4.1 183 17.4 101230 78
2002-08-01 13:07 51°19.908 2°47.767 4.9 170 17.4 101230 79
2002-08-01 13:08 51°19.905 2°47.775 3.3 160 17.4 101230 79
2002-08-01 13:09 51°19.903 2°47.772 4.5 156 17.4 101230 80
2002-08-01 13:10 51°19.899 2°47.761 4.2 131 17.4 101230 80
2002-08-01 13:11 51°19.896 2°47.745 4.2 131 17.4 101230 79
2002-08-01 13:12 51°19.893 2°47.725 3.7 124 17.5 101230 80
2002-08-01 13:13 51°19.89 2°47.701 4.3 115 17.5 101230 79
2002-08-01 13:14 51°19.884 2°47.674 4 101 17.5 101240 78
2002-08-01 13:15 51°19.865 2°47.66 2.9 45 17.6 101240 79
2002-08-01 13:16 51°19.848 2°47.662 4.3 11 17.6 101240 78
2002-08-01 13:17 51°19.845 2°47.67 0.6 316 17.6 101240 78
2002-08-01 13:18 51°19.854 2°47.681 0.9 327 17.5 101240 78
2002-08-01 13:19 51°19.87 2°47.695 1.8 300 17.5 101230 77
2002-08-01 13:20 51°19.885 2°47.715 0.4 320 17.6 101230 78
2002-08-01 13:21 51°19.889 2°47.739 2.7 347 17.7 101240 77
2002-08-01 13:22 51°19.884 2°47.763 2.2 28 17.7 101230 76
2002-08-01 13:23 51°19.872 2°47.785 3.1 18 17.7 101240 76
2002-08-01 13:24 51°19.868 2°47.799 0.7 340 17.6 101230 76
2002-08-01 13:25 51°19.871 2°47.803 0.7 328 17.7 101230 76
2002-08-01 13:26 51°19.876 2°47.799 0.8 318 17.7 101240 76
2002-08-01 13:27 51°19.885 2°47.79 2.8 301 17.7 101240 76
2002-08-01 13:28 51°19.894 2°47.78 4 307 17.8 101230 77
2002-08-01 13:29 51°19.903 2°47.771 4.2 291 17.8 101230 76
2002-08-01 13:30 51°19.912 2°47.762 3.8 297 17.9 101230 77
2002-08-01 13:31 51°19.921 2°47.753 1.8 310 17.8 101230 76
2002-08-01 13:32 51°19.928 2°47.75 1 347 17.8 101230 76
2002-08-01 13:33 51°19.93 2°47.753 2.1 349 17.8 101230 76
2002-08-01 13:34 51°19.927 2°47.761 3.1 8 17.7 101230 76
2002-08-01 13:35 51°19.922 2°47.77 3.5 356 17.8 101230 76
2002-08-01 13:36 51°19.918 2°47.781 2.9 348 17.8 101220 76
2002-08-01 13:37 51°19.913 2°47.796 2.9 352 17.7 101220 76
2002-08-01 13:38 51°19.902 2°47.814 2.9 23 17.8 101220 77
2002-08-01 13:39 51°19.886 2°47.832 3 40 17.8 101220 77
2002-08-01 13:40 51°19.865 2°47.847 2.3 36 17.8 101220 77
2002-08-01 13:41 51°19.838 2°47.859 2.7 64 18.1 101220 77
2002-08-01 13:42 51°19.808 2°47.868 3.2 55 18.1 101220 76
2002-08-01 13:43 51°19.773 2°47.87 3.1 69 18.1 101220 75
2002-08-01 13:44 51°19.735 2°47.863 3.5 99 17.9 101220 75
2002-08-01 13:45 51°19.658 2°47.889 0.3 77 18 101220 76
2002-08-01 13:46 51°19.539 2°48.099 3.2 229 18 101220 77
2002-08-01 13:47 51°19.394 2°48.373 4.1 238 18.2 101220 77
2002-08-01 13:48 51°19.251 2°48.654 3.6 247 18.1 101220 75
2002-08-01 13:49 51°19.107 2°48.936 3.1 251 18.1 101220 75
2002-08-01 13:50 51°18.963 2°49.218 4.1 235 18.2 101220 76
2002-08-01 13:51 51°18.816 2°49.502 4.1 242 18.3 101220 76
2002-08-01 13:52 51°18.666 2°49.783 3.8 226 18.2 101210 75
2002-08-01 13:53 51°18.513 2°50.064 3.4 237 18.1 101210 74
2002-08-01 13:54 51°18.366 2°50.349 3.1 244 18.1 101210 75
2002-08-01 13:55 51°18.22 2°50.635 3.7 247 18.2 101210 75
2002-08-01 13:56 51°18.069 2°50.915 3.6 246 18.1 101210 74
2002-08-01 13:57 51°17.918 2°51.195 3.4 254 18.2 101210 74
2002-08-01 13:58 51°17.768 2°51.477 4.5 263 18.3 101200 75
2002-08-01 13:59 51°17.607 2°51.747 4.5 247 18.3 101200 74
2002-08-01 14:00 51°17.42 2°51.983 3.4 240 18.2 101200 74
2002-08-01 14:01 51°17.208 2°52.163 3.1 231 18.2 101200 73
2002-08-01 14:02 51°16.991 2°52.336 3.2 241 18.1 101200 74
2002-08-01 14:03 51°16.775 2°52.512 4.3 242 18.1 101200 74
2002-08-01 14:04 51°16.559 2°52.694 3.8 232 18.2 101200 74
2002-08-01 14:05 51°16.341 2°52.871 4.8 226 18.2 101200 75
2002-08-01 14:06 51°16.126 2°53.045 3.4 215 18.2 101190 74
2002-08-01 14:07 51°15.926 2°53.207 1.5 218 18.1 101190 74
2002-08-01 14:08 51°15.786 2°53.321 0.6 201 18.1 101190 74
2002-08-01 14:09 51°15.647 2°53.451 2.6 217 18.2 101190 73
2002-08-01 14:10 51°15.469 2°53.656 3.7 242 18.1 101190 73
2002-08-01 14:11 51°15.294 2°53.88 4.2 254 18.1 101190 73
2002-08-01 14:12 51°15.12 2°54.104 4.4 263 18.2 101180 74
2002-08-01 14:13 51°14.945 2°54.328 3.3 250 18.2 101180 73
2002-08-01 14:14 51°14.765 2°54.557 3 241 18.3 101180 73
2002-08-01 14:15 51°14.591 2°54.789 3.8 244 18.2 101180 73
2002-08-01 14:16 51°14.429 2°55.003 3.3 251 18.2 101190 73
2002-08-01 14:17 51°14.291 2°55.224 3.6 260 18.3 101180 74
2002-08-01 14:18 51°14.18 2°55.37 0.4 304 18.3 101190 73
2002-08-01 14:19 51°14.073 2°55.452   324 18.4 101190 72
2002-08-01 14:20 51°13.976 2°55.523   306 18.5 101190 72
2002-08-01 14:21 51°13.886 2°55.591 0.4 183 18.6 101180 72
2002-08-01 14:22 51°13.802 2°55.654 2.1 6 18.7 101180 72
2002-08-01 14:23 51°13.742 2°55.723 1.8 341 18.8 101180 71